San Carlos, CA

2:18 PM PST on December 07, 2016 (GMT -0800)
San Carlos

Weather History for KSQL - March, 2013

Change the Weather History Date:

Saturday, March 30, 2013

  Actual Average Record
Temperature  
Mean Temperature 60 °F -  
Max Temperature 66 °F 68 °F 80 °F (1950)
Min Temperature 55 °F 44 °F 35 °F (1977)
Degree Days  
Heating Degree Days 4    
Growing Degree Days 10 (Base 50)    
Moisture  
Dew Point 53 °F    
Average Humidity 83    
Maximum Humidity 94    
Minimum Humidity 64    
Precipitation  
Precipitation 0.08 in - - ()
Sea Level Pressure  
Sea Level Pressure 30.05 in    
Wind  
Wind Speed 4 mph (NNW)    
Max Wind Speed 12 mph    
Max Gust Speed -    
Visibility 10 miles    
Events Rain    
Averages and records for this station are not official NWS values.
T = Trace of Precipitation, MM = Missing Value Source: NWS Daily Summary

Daily Weather History Graph

Daily Weather History Graph

Search for Another Location

Airport or City:

Trip Planner

Search our weather history database for the weather conditions in past years. The results will help you decide how hot, cold, wet, or windy it might be!

Date:

Astronomy

Mar. 30, 2013 Rise Set
Actual Time 6:56 AM PDT 7:30 PM PDT
Civil Twilight 6:30 AM PDT 7:56 PM PDT
Nautical Twilight 5:59 AM PDT 8:27 PM PDT
Astronomical Twilight 5:28 AM PDT 8:59 PM PDT
Moon 11:37 PM PDT (3/30) 9:01 AM PDT (3/30)
Length of Visible Light 13h 25m
Length of Day
12h 33m
Waning Gibbous, 85% of the Moon is Illuminated
Mar 30
Waning Gibbous
Apr 2
Last Quarter
Apr 10
New
Apr 18
First Quarter
Apr 25
Full

Hourly Weather History & Observations

Time (PDT) Temp. Dew Point Humidity Pressure Visibility Wind Dir Wind Speed Gust Speed Precip Events Conditions
12:15 AM 57.2 °F 51.8 °F 82% 30.07 in 10.0 mi WNW 5.8 mph - N/A   Partly Cloudy
12:30 AM 57.2 °F 51.8 °F 82% 30.07 in 10.0 mi NW 6.9 mph - N/A   Partly Cloudy
12:50 AM 57.2 °F 51.8 °F 82% 30.07 in 10.0 mi North 6.9 mph - N/A   Scattered Clouds
1:15 AM 55.4 °F 51.8 °F 88% 30.07 in 10.0 mi North 3.5 mph - N/A   Clear
1:30 AM 55.4 °F 51.8 °F 88% 30.07 in 10.0 mi North 5.8 mph - N/A   Scattered Clouds
1:50 AM 55.4 °F 51.8 °F 88% 30.07 in 10.0 mi North 3.5 mph - N/A   Partly Cloudy
2:15 AM 55.4 °F 51.8 °F 88% 30.07 in 10.0 mi North 3.5 mph - N/A   Clear
2:30 AM 55.4 °F 51.8 °F 88% 30.07 in 10.0 mi NNW 5.8 mph - N/A   Clear
2:50 AM 55.4 °F 51.8 °F 88% 30.07 in 10.0 mi NNW 5.8 mph - N/A   Clear
3:15 AM 55.4 °F 51.8 °F 88% 30.07 in 10.0 mi North 3.5 mph - N/A   Clear
3:35 AM 55.4 °F 51.8 °F 88% 30.06 in 10.0 mi North 3.5 mph - N/A   Clear
3:50 AM 55.4 °F 51.8 °F 88% 30.06 in 10.0 mi Calm Calm - N/A   Clear
4:10 AM 55.4 °F 51.8 °F 88% 30.05 in 10.0 mi Calm Calm - N/A   Clear
4:35 AM 55.4 °F 51.8 °F 88% 30.05 in 10.0 mi Calm Calm - N/A   Clear
4:50 AM 55.4 °F 51.8 °F 88% 30.05 in 10.0 mi Calm Calm - N/A   Scattered Clouds
5:10 AM 55.4 °F 51.8 °F 88% 30.05 in 10.0 mi Calm Calm - N/A   Mostly Cloudy
5:30 AM 55.4 °F 51.8 °F 88% 30.05 in 10.0 mi Calm Calm - N/A   Overcast
5:55 AM 55.4 °F 51.8 °F 88% 30.04 in 10.0 mi West 3.5 mph - N/A   Overcast
6:10 AM 55.4 °F 51.8 °F 88% 30.04 in 10.0 mi Calm Calm - N/A   Overcast
6:30 AM 55.4 °F 51.8 °F 88% 30.05 in 10.0 mi Calm Calm - N/A   Overcast
6:47 AM 55.4 °F 50.0 °F 82% 30.06 in 10.0 mi Variable 4.6 mph - N/A   Overcast
6:55 AM 55.4 °F 50.0 °F 82% 30.06 in 10.0 mi NW 4.6 mph - N/A   Overcast
7:47 AM 55.4 °F 50.0 °F 82% 30.07 in 10.0 mi West 5.8 mph - N/A   Overcast
8:50 AM 55.4 °F 50.0 °F 82% 30.08 in 10.0 mi NW 3.5 mph - N/A   Overcast
9:10 AM 55.4 °F 50.0 °F 82% 30.08 in 10.0 mi Calm Calm - N/A   Overcast
9:47 AM 57.2 °F 53.6 °F 88% 30.08 in 8.0 mi ENE 3.5 mph - N/A   Mostly Cloudy
10:48 AM 57.2 °F 53.6 °F 88% 30.09 in 10.0 mi NE 5.8 mph - N/A   Overcast
11:47 AM 59.0 °F 53.6 °F 82% 30.08 in 10.0 mi North 3.5 mph - N/A   Mostly Cloudy
12:47 PM 59.0 °F 53.6 °F 82% 30.08 in 10.0 mi NNE 5.8 mph - N/A   Mostly Cloudy
1:47 PM 62.6 °F 55.4 °F 77% 30.06 in 10.0 mi NNE 8.1 mph - N/A   Mostly Cloudy
2:47 PM 66.2 °F 53.6 °F 64% 30.03 in 10.0 mi NNW 5.8 mph - N/A   Mostly Cloudy
3:47 PM 64.4 °F 55.4 °F 73% 30.01 in 10.0 mi NNE 11.5 mph - N/A   Mostly Cloudy
4:47 PM 64.4 °F 53.6 °F 68% 30.00 in 10.0 mi North 5.8 mph - N/A   Mostly Cloudy
5:52 PM 64.4 °F 53.6 °F 68% 29.98 in 10.0 mi West 4.6 mph - N/A Rain Light Rain
6:49 PM 62.6 °F 55.4 °F 77% 29.99 in 10.0 mi NE 6.9 mph - N/A   Overcast
7:49 PM 62.6 °F 51.8 °F 68% 30.00 in 10.0 mi SSE 8.1 mph - N/A   Overcast
8:49 PM 60.8 °F 51.8 °F 72% 30.02 in 10.0 mi SSE 6.9 mph - N/A   Overcast
9:15 PM 60.8 °F 51.8 °F 72% 30.03 in 10.0 mi South 5.8 mph - N/A   Overcast
9:35 PM 59.0 °F 53.6 °F 82% 30.02 in 10.0 mi Calm Calm - N/A   Mostly Cloudy
9:50 PM 59.0 °F 53.6 °F 82% 30.03 in 10.0 mi NW 3.5 mph - N/A   Overcast
10:10 PM 59.0 °F 53.6 °F 82% 30.03 in 10.0 mi NW 4.6 mph - N/A   Overcast
10:35 PM 59.0 °F 55.4 °F 88% 30.04 in 10.0 mi Calm Calm - N/A Rain Light Rain
10:50 PM 59.0 °F 55.4 °F 88% 30.03 in 10.0 mi NNW 3.5 mph - N/A   Overcast
11:10 PM 59.0 °F 55.4 °F 88% 30.02 in 7.0 mi WNW 4.6 mph - N/A Rain Light Rain
11:30 PM 57.2 °F 55.4 °F 94% 30.03 in 3.0 mi Calm Calm - 0.06 in Rain Light Rain
11:55 PM 57.2 °F 55.4 °F 94% 30.04 in 8.0 mi Calm Calm - 0.08 in Rain Light Rain